Time,TemperatureF,DewpointF,PressureIn,WindDirection,WindDirectionDegrees,WindSpeedMPH,WindSpeedGustMPH,Humidity,HourlyPrecipIn,Conditions,Clouds,dailyrainin,SoftwareType,DateUTC
2013-04-28 00:01:00,46.0,32.9,30.09,ENE,67,0.0,0.0,60,0.00,,,0.00,WUHU21623XXSP,2013-04-28 04:01:00,
2013-04-28 00:06:00,45.7,33.0,30.09,ENE,67,0.0,0.0,61,0.00,,,0.00,WUHU21623XXSP,2013-04-28 04:06:00,
2013-04-28 00:11:00,45.3,32.7,30.09,ENE,67,0.0,0.0,61,0.00,,,0.00,WUHU21623XXSP,2013-04-28 04:11:00,
2013-04-28 00:16:00,45.1,32.7,30.09,ENE,67,0.0,0.0,61,0.00,,,0.00,WUHU21623XXSP,2013-04-28 04:16:00,
2013-04-28 00:21:00,45.0,32.7,30.09,ENE,67,0.0,0.0,62,0.00,,,0.00,WUHU21623XXSP,2013-04-28 04:21:00,
2013-04-28 00:26:00,44.8,32.6,30.09,ENE,67,0.0,0.0,62,0.00,,,0.00,WUHU21623XXSP,2013-04-28 04:26:00,
2013-04-28 00:31:00,44.6,32.8,30.09,ENE,67,0.0,0.0,63,0.00,,,0.00,WUHU21623XXSP,2013-04-28 04:31:00,
2013-04-28 00:36:00,44.4,33.0,30.09,ENE,67,0.0,0.0,64,0.00,,,0.00,WUHU21623XXSP,2013-04-28 04:36:00,
2013-04-28 00:41:00,44.2,32.8,30.09,ENE,67,0.0,0.0,64,0.00,,,0.00,WUHU21623XXSP,2013-04-28 04:41:00,
2013-04-28 00:46:00,44.2,32.8,30.09,ENE,67,0.0,0.0,64,0.00,,,0.00,WUHU21623XXSP,2013-04-28 04:46:00,
2013-04-28 00:51:00,43.9,32.5,30.09,ENE,67,0.0,0.0,64,0.00,,,0.00,WUHU21623XXSP,2013-04-28 04:51:00,
2013-04-28 00:56:00,43.7,32.3,30.09,ENE,67,0.0,0.0,64,0.00,,,0.00,WUHU21623XXSP,2013-04-28 04:56:00,
2013-04-28 01:01:00,43.5,32.1,30.09,ENE,67,0.0,0.0,64,0.00,,,0.00,WUHU21623XXSP,2013-04-28 05:01:00,
2013-04-28 01:10:00,43.5,32.1,30.09,ENE,67,0.0,0.0,64,0.00,,,0.00,WUHU21623XXSP,2013-04-28 05:10:00,
2013-04-28 01:15:00,43.0,32.4,30.08,ENE,67,0.0,0.0,66,0.00,,,0.00,WUHU21623XXSP,2013-04-28 05:15:00,
2013-04-28 01:20:00,43.0,32.4,30.08,ENE,67,0.0,0.0,66,0.00,,,0.00,WUHU21623XXSP,2013-04-28 05:20:00,
2013-04-28 01:25:00,42.6,32.2,30.08,ENE,67,0.0,0.0,66,0.00,,,0.00,WUHU21623XXSP,2013-04-28 05:25:00,
2013-04-28 01:30:00,42.6,32.0,30.07,ENE,67,0.0,0.0,66,0.00,,,0.00,WUHU21623XXSP,2013-04-28 05:30:00,
2013-04-28 01:35:00,42.4,32.3,30.08,ENE,67,0.0,0.0,67,0.00,,,0.00,WUHU21623XXSP,2013-04-28 05:35:00,
2013-04-28 01:40:00,42.4,32.6,30.07,ENE,67,0.0,0.0,68,0.00,,,0.00,WUHU21623XXSP,2013-04-28 05:40:00,
2013-04-28 01:45:00,42.4,32.6,30.07,ENE,67,0.0,0.0,68,0.00,,,0.00,WUHU21623XXSP,2013-04-28 05:45:00,
2013-04-28 01:50:00,42.4,32.6,30.07,ENE,67,0.0,0.0,68,0.00,,,0.00,WUHU21623XXSP,2013-04-28 05:50:00,
2013-04-28 01:55:00,42.3,32.5,30.07,ENE,67,0.0,0.0,68,0.00,,,0.00,WUHU21623XXSP,2013-04-28 05:55:00,
2013-04-28 02:00:00,42.1,32.3,30.07,ENE,67,0.0,0.0,68,0.00,,,0.00,WUHU21623XXSP,2013-04-28 06:00:00,
2013-04-28 02:05:00,41.7,31.9,30.07,ENE,67,0.0,0.0,68,0.00,,,0.00,WUHU21623XXSP,2013-04-28 06:05:00,
2013-04-28 02:10:00,41.7,31.9,30.07,ENE,67,0.0,0.0,68,0.00,,,0.00,WUHU21623XXSP,2013-04-28 06:10:00,
2013-04-28 02:15:00,41.5,31.8,30.07,ENE,67,0.0,0.0,68,0.00,,,0.00,WUHU21623XXSP,2013-04-28 06:15:00,
2013-04-28 02:20:00,41.2,31.4,30.07,ENE,67,0.0,0.0,68,0.00,,,0.00,WUHU21623XXSP,2013-04-28 06:20:00,
2013-04-28 02:25:00,41.2,31.4,30.06,ENE,67,0.0,0.0,68,0.00,,,0.00,WUHU21623XXSP,2013-04-28 06:25:00,
2013-04-28 02:30:00,40.8,31.4,30.07,ENE,67,0.0,0.0,69,0.00,,,0.00,WUHU21623XXSP,2013-04-28 06:30:00,
2013-04-28 02:35:00,40.8,31.4,30.07,ENE,67,0.0,0.0,69,0.00,,,0.00,WUHU21623XXSP,2013-04-28 06:35:00,
2013-04-28 02:40:00,40.8,31.8,30.07,ENE,67,0.0,0.0,70,0.00,,,0.00,WUHU21623XXSP,2013-04-28 06:40:00,
2013-04-28 02:45:00,40.8,31.8,30.06,ENE,67,0.0,0.0,70,0.00,,,0.00,WUHU21623XXSP,2013-04-28 06:45:00,
2013-04-28 02:50:00,40.8,31.8,30.07,ENE,67,0.0,0.0,70,0.00,,,0.00,WUHU21623XXSP,2013-04-28 06:50:00,
2013-04-28 02:55:00,40.6,31.6,30.07,ENE,67,0.0,0.0,70,0.00,,,0.00,WUHU21623XXSP,2013-04-28 06:55:00,
2013-04-28 03:00:00,40.5,31.5,30.07,ENE,67,0.0,0.0,70,0.00,,,0.00,WUHU21623XXSP,2013-04-28 07:00:00,
2013-04-28 03:05:00,40.5,31.5,30.07,ENE,67,0.0,0.0,70,0.00,,,0.00,WUHU21623XXSP,2013-04-28 07:05:00,
2013-04-28 03:10:00,40.1,31.1,30.07,ENE,67,0.0,0.0,70,0.00,,,0.00,WUHU21623XXSP,2013-04-28 07:10:00,
2013-04-28 03:15:00,39.9,30.9,30.06,ENE,67,0.0,0.0,70,0.00,,,0.00,WUHU21623XXSP,2013-04-28 07:15:00,
2013-04-28 03:20:00,39.7,31.1,30.06,ENE,67,0.0,0.0,71,0.00,,,0.00,WUHU21623XXSP,2013-04-28 07:20:00,
2013-04-28 03:25:00,39.7,31.1,30.06,ENE,67,0.0,0.0,71,0.00,,,0.00,WUHU21623XXSP,2013-04-28 07:25:00,
2013-04-28 03:30:00,39.6,30.9,30.06,ENE,67,0.0,0.0,71,0.00,,,0.00,WUHU21623XXSP,2013-04-28 07:30:00,
2013-04-28 03:35:00,39.4,30.7,30.07,ENE,67,0.0,0.0,71,0.00,,,0.00,WUHU21623XXSP,2013-04-28 07:35:00,
2013-04-28 03:40:00,39.4,30.7,30.06,ENE,67,0.0,0.0,71,0.00,,,0.00,WUHU21623XXSP,2013-04-28 07:40:00,
2013-04-28 03:45:00,39.0,30.4,30.07,ENE,67,0.0,0.0,71,0.00,,,0.00,WUHU21623XXSP,2013-04-28 07:45:00,
2013-04-28 03:50:00,39.0,30.4,30.07,ENE,67,0.0,0.0,71,0.00,,,0.00,WUHU21623XXSP,2013-04-28 07:50:00,
2013-04-28 03:55:00,39.0,30.4,30.07,ENE,67,0.0,0.0,71,0.00,,,0.00,WUHU21623XXSP,2013-04-28 07:55:00,
2013-04-28 04:00:00,38.8,30.2,30.07,ENE,67,0.0,0.0,71,0.00,,,0.00,WUHU21623XXSP,2013-04-28 08:00:00,
2013-04-28 04:05:00,38.8,30.2,30.07,ENE,67,0.0,0.0,71,0.00,,,0.00,WUHU21623XXSP,2013-04-28 08:05:00,
2013-04-28 04:10:00,38.5,29.9,30.06,ENE,67,0.0,0.0,71,0.00,,,0.00,WUHU21623XXSP,2013-04-28 08:10:00,
2013-04-28 04:15:00,38.3,29.7,30.07,ENE,67,0.0,0.0,71,0.00,,,0.00,WUHU21623XXSP,2013-04-28 08:15:00,
2013-04-28 04:20:00,38.1,29.6,30.07,ENE,67,0.0,0.0,71,0.00,,,0.00,WUHU21623XXSP,2013-04-28 08:20:00,
2013-04-28 04:25:00,38.1,29.6,30.07,ENE,67,0.0,0.0,71,0.00,,,0.00,WUHU21623XXSP,2013-04-28 08:25:00,
2013-04-28 04:30:00,37.9,29.7,30.06,ENE,67,0.0,0.0,72,0.00,,,0.00,WUHU21623XXSP,2013-04-28 08:30:00,
2013-04-28 04:35:00,37.8,29.6,30.06,ENE,67,0.0,0.0,72,0.00,,,0.00,WUHU21623XXSP,2013-04-28 08:35:00,
2013-04-28 04:40:00,37.8,29.6,30.06,ENE,67,0.0,0.0,72,0.00,,,0.00,WUHU21623XXSP,2013-04-28 08:40:00,
2013-04-28 04:45:00,37.6,29.4,30.06,ENE,67,0.0,0.0,72,0.00,,,0.00,WUHU21623XXSP,2013-04-28 08:45:00,
2013-04-28 04:50:00,37.6,29.7,30.06,ENE,67,0.0,0.0,73,0.00,,,0.00,WUHU21623XXSP,2013-04-28 08:50:00,
2013-04-28 04:55:00,37.6,29.7,30.05,ENE,67,0.0,0.0,73,0.00,,,0.00,WUHU21623XXSP,2013-04-28 08:55:00,
2013-04-28 05:00:00,37.4,29.6,30.05,ENE,67,0.0,0.0,73,0.00,,,0.00,WUHU21623XXSP,2013-04-28 09:00:00,
2013-04-28 05:05:00,37.4,29.6,30.05,ENE,67,0.0,0.0,73,0.00,,,0.00,WUHU21623XXSP,2013-04-28 09:05:00,
2013-04-28 05:10:00,37.4,29.6,30.05,ENE,67,0.0,0.0,73,0.00,,,0.00,WUHU21623XXSP,2013-04-28 09:10:00,
2013-04-28 05:15:00,37.0,29.2,30.06,ENE,67,0.0,0.0,73,0.00,,,0.00,WUHU21623XXSP,2013-04-28 09:15:00,
2013-04-28 05:20:00,37.0,29.2,30.06,ENE,67,0.0,0.0,73,0.00,,,0.00,WUHU21623XXSP,2013-04-28 09:20:00,
2013-04-28 05:25:00,36.9,29.0,30.06,ENE,67,0.0,0.0,73,0.00,,,0.00,WUHU21623XXSP,2013-04-28 09:25:00,
2013-04-28 05:30:00,36.9,29.0,30.06,ENE,67,0.0,0.0,73,0.00,,,0.00,WUHU21623XXSP,2013-04-28 09:30:00,
2013-04-28 05:35:00,36.7,28.8,30.05,ENE,67,0.0,0.0,73,0.00,,,0.00,WUHU21623XXSP,2013-04-28 09:35:00,
2013-04-28 05:40:00,36.7,29.2,30.06,ENE,67,0.0,0.0,74,0.00,,,0.00,WUHU21623XXSP,2013-04-28 09:40:00,
2013-04-28 05:45:00,36.7,29.2,30.06,ENE,67,0.0,0.0,74,0.00,,,0.00,WUHU21623XXSP,2013-04-28 09:45:00,
2013-04-28 05:50:00,36.7,29.2,30.05,ENE,67,0.0,0.0,74,0.00,,,0.00,WUHU21623XXSP,2013-04-28 09:50:00,
2013-04-28 05:55:00,36.5,29.0,30.06,ENE,67,0.0,0.0,74,0.00,,,0.00,WUHU21623XXSP,2013-04-28 09:55:00,
2013-04-28 06:00:00,36.3,28.8,30.06,ENE,67,0.0,0.0,74,0.00,,,0.00,WUHU21623XXSP,2013-04-28 10:00:00,
2013-04-28 06:05:00,36.3,28.8,30.06,ENE,67,0.0,0.0,74,0.00,,,0.00,WUHU21623XXSP,2013-04-28 10:05:00,
2013-04-28 06:10:00,36.3,28.8,30.06,ENE,67,0.0,0.0,74,0.00,,,0.00,WUHU21623XXSP,2013-04-28 10:10:00,
2013-04-28 06:15:00,36.3,28.8,30.06,ENE,67,0.0,0.0,74,0.00,,,0.00,WUHU21623XXSP,2013-04-28 10:15:00,
2013-04-28 06:20:00,36.3,28.8,30.06,ENE,67,0.0,0.0,74,0.00,,,0.00,WUHU21623XXSP,2013-04-28 10:20:00,
2013-04-28 06:25:00,36.3,28.8,30.06,ENE,67,0.0,0.0,74,0.00,,,0.00,WUHU21623XXSP,2013-04-28 10:25:00,
2013-04-28 06:30:00,36.5,29.3,30.06,ENE,67,0.0,0.0,75,0.00,,,0.00,WUHU21623XXSP,2013-04-28 10:30:00,
2013-04-28 06:35:00,36.7,29.5,30.06,ENE,67,0.0,0.0,75,0.00,,,0.00,WUHU21623XXSP,2013-04-28 10:35:00,
2013-04-28 06:40:00,36.7,29.5,30.07,ENE,67,0.0,0.0,75,0.00,,,0.00,WUHU21623XXSP,2013-04-28 10:40:00,
2013-04-28 06:45:00,37.0,29.8,30.07,ENE,67,0.0,0.0,75,0.00,,,0.00,WUHU21623XXSP,2013-04-28 10:45:00,
2013-04-28 06:50:00,37.0,29.8,30.07,ENE,67,0.0,0.0,75,0.00,,,0.00,WUHU21623XXSP,2013-04-28 10:50:00,
2013-04-28 06:55:00,37.2,30.3,30.07,ENE,67,0.0,0.0,76,0.00,,,0.00,WUHU21623XXSP,2013-04-28 10:55:00,
2013-04-28 07:00:00,37.6,30.7,30.07,ENE,67,0.0,0.0,76,0.00,,,0.00,WUHU21623XXSP,2013-04-28 11:00:00,
2013-04-28 07:05:00,37.6,30.7,30.07,ENE,67,0.0,0.0,76,0.00,,,0.00,WUHU21623XXSP,2013-04-28 11:05:00,
2013-04-28 07:10:00,37.9,31.0,30.08,ENE,67,0.0,0.0,76,0.00,,,0.00,WUHU21623XXSP,2013-04-28 11:10:00,
2013-04-28 07:15:00,38.5,31.6,30.08,ENE,67,0.0,0.0,76,0.00,,,0.00,WUHU21623XXSP,2013-04-28 11:15:00,
2013-04-28 07:20:00,38.8,31.9,30.08,ENE,67,0.0,0.0,76,0.00,,,0.00,WUHU21623XXSP,2013-04-28 11:20:00,
2013-04-28 07:25:00,39.4,32.8,30.08,ENE,67,0.0,0.0,77,0.00,,,0.00,WUHU21623XXSP,2013-04-28 11:25:00,
2013-04-28 07:30:00,40.3,33.9,30.08,ENE,67,0.0,0.0,78,0.00,,,0.00,WUHU21623XXSP,2013-04-28 11:30:00,
2013-04-28 07:35:00,41.0,34.6,30.08,ENE,67,0.0,0.0,78,0.00,,,0.00,WUHU21623XXSP,2013-04-28 11:35:00,
2013-04-28 07:40:00,41.5,35.1,30.09,ENE,67,0.0,0.0,78,0.00,,,0.00,WUHU21623XXSP,2013-04-28 11:40:00,
2013-04-28 07:45:00,42.3,35.5,30.09,ENE,67,0.0,0.0,77,0.00,,,0.00,WUHU21623XXSP,2013-04-28 11:45:00,
2013-04-28 07:50:00,42.8,36.1,30.09,ENE,67,0.0,0.0,77,0.00,,,0.00,WUHU21623XXSP,2013-04-28 11:50:00,
2013-04-28 07:55:00,43.2,36.4,30.09,ENE,67,0.0,0.0,77,0.00,,,0.00,WUHU21623XXSP,2013-04-28 11:55:00,
2013-04-28 08:00:00,44.1,37.0,30.09,ENE,67,0.0,0.0,76,0.00,,,0.00,WUHU21623XXSP,2013-04-28 12:00:00,
2013-04-28 08:05:00,44.6,37.1,30.10,ENE,67,0.0,0.0,75,0.00,,,0.00,WUHU21623XXSP,2013-04-28 12:05:00,
2013-04-28 08:10:00,45.1,37.7,30.10,ENE,67,0.0,0.0,75,0.00,,,0.00,WUHU21623XXSP,2013-04-28 12:10:00,
2013-04-28 08:15:00,46.0,38.2,30.10,ENE,67,0.0,0.0,74,0.00,,,0.00,WUHU21623XXSP,2013-04-28 12:15:00,
2013-04-28 08:20:00,46.6,38.4,30.10,ENE,67,0.0,0.0,73,0.00,,,0.00,WUHU21623XXSP,2013-04-28 12:20:00,
2013-04-28 08:25:00,47.7,39.0,30.10,ENE,67,0.0,0.0,72,0.00,,,0.00,WUHU21623XXSP,2013-04-28 12:25:00,
2013-04-28 08:30:00,48.4,39.0,30.10,ENE,67,0.0,0.0,71,0.00,,,0.00,WUHU21623XXSP,2013-04-28 12:30:00,
2013-04-28 08:35:00,49.1,39.7,30.10,ENE,67,0.0,0.0,70,0.00,,,0.00,WUHU21623XXSP,2013-04-28 12:35:00,
2013-04-28 08:40:00,49.6,39.9,30.09,ENE,67,0.0,0.0,69,0.00,,,0.00,WUHU21623XXSP,2013-04-28 12:40:00,
2013-04-28 08:45:00,50.7,39.7,30.09,ENE,67,0.0,0.0,66,0.00,,,0.00,WUHU21623XXSP,2013-04-28 12:45:00,
2013-04-28 08:50:00,51.3,40.3,30.09,ENE,67,0.0,0.0,66,0.00,,,0.00,WUHU21623XXSP,2013-04-28 12:50:00,
2013-04-28 08:55:00,52.0,40.5,30.10,ENE,67,0.0,0.0,65,0.00,,,0.00,WUHU21623XXSP,2013-04-28 12:55:00,
2013-04-28 09:00:00,53.2,40.4,30.09,ENE,67,0.0,0.0,63,0.00,,,0.00,WUHU21623XXSP,2013-04-28 13:00:00,
2013-04-28 09:05:00,53.8,40.7,30.09,ENE,67,0.0,0.0,61,0.00,,,0.00,WUHU21623XXSP,2013-04-28 13:05:00,
2013-04-28 09:10:00,54.7,41.1,30.09,ENE,67,0.0,0.0,60,0.00,,,0.00,WUHU21623XXSP,2013-04-28 13:10:00,
2013-04-28 09:15:00,55.2,41.1,30.09,East,90,0.0,0.0,59,0.00,,,0.00,WUHU21623XXSP,2013-04-28 13:15:00,
2013-04-28 09:20:00,55.8,41.6,30.09,ENE,67,0.0,0.0,59,0.00,,,0.00,WUHU21623XXSP,2013-04-28 13:20:00,
2013-04-28 09:25:00,56.1,41.0,30.10,NE,45,0.0,0.0,57,0.00,,,0.00,WUHU21623XXSP,2013-04-28 13:25:00,
2013-04-28 09:30:00,57.0,41.8,30.09,NE,45,0.0,0.0,57,0.00,,,0.00,WUHU21623XXSP,2013-04-28 13:30:00,
2013-04-28 09:35:00,57.4,41.9,30.09,SE,135,0.0,0.0,57,0.00,,,0.00,WUHU21623XXSP,2013-04-28 13:35:00,
2013-04-28 09:40:00,58.1,42.3,30.09,SE,135,0.0,0.0,55,0.00,,,0.00,WUHU21623XXSP,2013-04-28 13:40:00,
2013-04-28 09:45:00,58.6,42.5,30.09,NE,45,0.0,0.0,55,0.00,,,0.00,WUHU21623XXSP,2013-04-28 13:45:00,
2013-04-28 09:50:00,58.8,42.2,30.09,East,90,0.0,0.0,54,0.00,,,0.00,WUHU21623XXSP,2013-04-28 13:50:00,
2013-04-28 09:55:00,59.5,41.7,30.09,ENE,67,0.0,0.0,53,0.00,,,0.00,WUHU21623XXSP,2013-04-28 13:55:00,
2013-04-28 10:00:00,59.9,41.7,30.09,ENE,67,0.0,0.0,51,0.00,,,0.00,WUHU21623XXSP,2013-04-28 14:00:00,
2013-04-28 10:05:00,60.4,41.9,30.09,East,90,0.0,0.0,51,0.00,,,0.00,WUHU21623XXSP,2013-04-28 14:05:00,
2013-04-28 10:10:00,60.6,41.9,30.09,ENE,67,0.0,0.0,50,0.00,,,0.00,WUHU21623XXSP,2013-04-28 14:10:00,
2013-04-28 10:15:00,61.5,42.2,30.09,East,90,0.0,0.0,49,0.00,,,0.00,WUHU21623XXSP,2013-04-28 14:15:00,
2013-04-28 10:20:00,61.9,42.5,30.09,East,90,0.0,0.0,48,0.00,,,0.00,WUHU21623XXSP,2013-04-28 14:20:00,
2013-04-28 10:25:00,62.4,42.4,30.09,WSW,247,0.0,0.0,48,0.00,,,0.00,WUHU21623XXSP,2013-04-28 14:25:00,
2013-04-28 10:30:00,63.0,40.6,30.09,ENE,67,0.0,0.0,44,0.00,,,0.00,WUHU21623XXSP,2013-04-28 14:30:00,
2013-04-28 10:35:00,63.1,41.3,30.08,NNW,337,3.1,3.1,45,0.00,,,0.00,WUHU21623XXSP,2013-04-28 14:35:00,
2013-04-28 10:40:00,63.7,40.1,30.08,ENE,67,0.0,3.1,42,0.00,,,0.00,WUHU21623XXSP,2013-04-28 14:40:00,
2013-04-28 10:45:00,64.2,42.3,30.08,SE,135,0.0,0.0,45,0.00,,,0.00,WUHU21623XXSP,2013-04-28 14:45:00,
2013-04-28 10:50:00,64.8,42.2,30.08,SW,225,0.0,0.0,44,0.00,,,0.00,WUHU21623XXSP,2013-04-28 14:50:00,
2013-04-28 10:55:00,65.5,41.7,30.08,West,270,0.0,0.0,42,0.00,,,0.00,WUHU21623XXSP,2013-04-28 14:55:00,
2013-04-28 11:00:00,66.0,40.3,30.07,SE,135,0.9,0.9,39,0.00,,,0.00,WUHU21623XXSP,2013-04-28 15:00:00,
2013-04-28 11:05:00,65.8,39.4,30.07,ESE,112,0.0,0.9,38,0.00,,,0.00,WUHU21623XXSP,2013-04-28 15:05:00,
2013-04-28 11:10:00,66.0,40.3,30.07,ENE,67,0.0,2.5,39,0.00,,,0.00,WUHU21623XXSP,2013-04-28 15:10:00,
2013-04-28 11:15:00,66.7,40.9,30.07,SSE,157,0.0,2.5,39,0.00,,,0.00,WUHU21623XXSP,2013-04-28 15:15:00,
2013-04-28 11:20:00,67.1,40.5,30.07,ENE,67,0.0,0.0,38,0.00,,,0.00,WUHU21623XXSP,2013-04-28 15:20:00,
2013-04-28 11:25:00,67.6,41.0,30.07,ENE,67,0.0,0.0,38,0.00,,,0.00,WUHU21623XXSP,2013-04-28 15:25:00,
2013-04-28 11:30:00,68.2,40.7,30.06,ESE,112,0.0,0.0,37,0.00,,,0.00,WUHU21623XXSP,2013-04-28 15:30:00,
2013-04-28 11:35:00,68.9,42.1,30.06,WSW,247,0.0,0.0,38,0.00,,,0.00,WUHU21623XXSP,2013-04-28 15:35:00,
2013-04-28 11:40:00,70.0,42.4,30.06,SSE,157,0.0,0.0,37,0.00,,,0.00,WUHU21623XXSP,2013-04-28 15:40:00,
2013-04-28 11:45:00,70.7,41.5,30.06,West,270,0.0,0.0,35,0.00,,,0.00,WUHU21623XXSP,2013-04-28 15:45:00,
2013-04-28 11:50:00,71.2,42.0,30.06,NE,45,0.0,0.0,35,0.00,,,0.00,WUHU21623XXSP,2013-04-28 15:50:00,
2013-04-28 11:55:00,71.2,41.3,30.06,ENE,67,0.0,1.6,34,0.00,,,0.00,WUHU21623XXSP,2013-04-28 15:55:00,
2013-04-28 12:00:00,71.8,41.0,30.05,ENE,67,1.1,1.6,33,0.00,,,0.00,WUHU21623XXSP,2013-04-28 16:00:00,
2013-04-28 12:05:00,71.6,40.1,30.05,ENE,67,0.0,1.1,32,0.00,,,0.00,WUHU21623XXSP,2013-04-28 16:05:00,
2013-04-28 12:10:00,71.2,39.1,30.05,ENE,67,4.0,6.9,31,0.00,,,0.00,WUHU21623XXSP,2013-04-28 16:10:00,
2013-04-28 12:15:00,71.4,40.7,30.05,West,270,2.9,6.9,33,0.00,,,0.00,WUHU21623XXSP,2013-04-28 16:15:00,
2013-04-28 12:20:00,71.4,39.2,30.05,ENE,67,0.0,6.3,31,0.00,,,0.00,WUHU21623XXSP,2013-04-28 16:20:00,
2013-04-28 12:25:00,71.8,40.3,30.05,ESE,112,0.0,6.3,32,0.00,,,0.00,WUHU21623XXSP,2013-04-28 16:25:00,
2013-04-28 12:30:00,72.3,40.4,30.05,NNE,22,0.0,5.8,32,0.00,,,0.00,WUHU21623XXSP,2013-04-28 16:30:00,
2013-04-28 12:35:00,73.0,41.3,30.05,ESE,112,0.0,0.0,32,0.00,,,0.00,WUHU21623XXSP,2013-04-28 16:35:00,
2013-04-28 12:40:00,74.8,42.9,30.04,SSE,157,0.0,1.1,32,0.00,,,0.00,WUHU21623XXSP,2013-04-28 16:40:00,
2013-04-28 12:45:00,75.4,41.9,30.04,SE,135,2.5,2.5,30,0.00,,,0.00,WUHU21623XXSP,2013-04-28 16:45:00,
2013-04-28 12:50:00,74.8,41.4,30.04,East,90,3.6,3.6,30,0.00,,,0.00,WUHU21623XXSP,2013-04-28 16:50:00,
2013-04-28 12:54:00,75.0,42.3,30.04,East,90,6.9,6.9,31,0.00,,,0.00,WUHU21623XXSP,2013-04-28 16:54:00,
2013-04-28 12:59:00,75.0,41.6,30.03,WNW,292,0.4,6.9,30,0.00,,,0.00,WUHU21623XXSP,2013-04-28 16:59:00,
2013-04-28 13:04:00,75.0,42.3,30.03,West,270,3.4,4.7,31,0.00,,,0.00,WUHU21623XXSP,2013-04-28 17:04:00,
2013-04-28 13:09:00,75.4,42.6,30.03,SE,135,0.0,4.7,31,0.00,,,0.00,WUHU21623XXSP,2013-04-28 17:09:00,
2013-04-28 13:14:00,76.5,43.1,30.03,SE,135,0.0,2.2,31,0.00,,,0.00,WUHU21623XXSP,2013-04-28 17:14:00,
2013-04-28 13:19:00,77.0,43.3,30.03,NE,45,0.0,4.3,30,0.00,,,0.00,WUHU21623XXSP,2013-04-28 17:19:00,
2013-04-28 13:24:00,77.4,43.6,30.02,ENE,67,0.0,4.3,30,0.00,,,0.00,WUHU21623XXSP,2013-04-28 17:24:00,
2013-04-28 13:29:00,77.7,43.8,30.02,ENE,67,0.0,2.5,29,0.00,,,0.00,WUHU21623XXSP,2013-04-28 17:29:00,
2013-04-28 13:34:00,77.9,43.0,30.02,ESE,112,0.0,0.0,29,0.00,,,0.00,WUHU21623XXSP,2013-04-28 17:34:00,
2013-04-28 13:39:00,77.7,41.8,30.02,NNE,22,1.8,1.8,28,0.00,,,0.00,WUHU21623XXSP,2013-04-28 17:39:00,
2013-04-28 13:45:00,77.4,42.6,30.02,WSW,247,0.9,1.8,29,0.00,,,0.00,WUHU21623XXSP,2013-04-28 17:45:00,
2013-04-28 13:50:00,77.7,42.7,30.02,WNW,292,4.5,4.5,29,0.00,,,0.00,WUHU21623XXSP,2013-04-28 17:50:00,
2013-04-28 13:55:00,78.6,43.6,30.02,South,180,0.0,6.3,29,0.00,,,0.00,WUHU21623XXSP,2013-04-28 17:55:00,
2013-04-28 14:00:00,78.6,42.9,30.01,NW,315,3.4,6.3,27,0.00,,,0.00,WUHU21623XXSP,2013-04-28 18:00:00,
2013-04-28 14:05:00,78.1,42.1,30.01,WSW,247,0.0,3.8,28,0.00,,,0.00,WUHU21623XXSP,2013-04-28 18:05:00,
2013-04-28 14:10:00,77.9,43.0,30.01,WSW,247,5.8,5.8,29,0.00,,,0.00,WUHU21623XXSP,2013-04-28 18:10:00,
2013-04-28 14:14:00,78.6,43.6,30.00,West,270,1.6,5.8,29,0.00,,,0.00,WUHU21623XXSP,2013-04-28 18:14:00,
2013-04-28 14:19:00,79.3,44.2,30.00,West,270,0.0,4.9,29,0.00,,,0.00,WUHU21623XXSP,2013-04-28 18:19:00,
2013-04-28 14:24:00,79.3,43.2,30.00,WNW,292,4.9,4.9,28,0.00,,,0.00,WUHU21623XXSP,2013-04-28 18:24:00,
2013-04-28 14:29:00,79.3,42.1,30.00,WNW,292,6.5,8.1,27,0.00,,,0.00,WUHU21623XXSP,2013-04-28 18:29:00,
2013-04-28 14:34:00,79.0,42.9,30.00,WSW,247,0.0,8.1,28,0.00,,,0.00,WUHU21623XXSP,2013-04-28 18:34:00,
2013-04-28 14:39:00,79.7,42.5,29.99,SE,135,1.6,1.6,27,0.00,,,0.00,WUHU21623XXSP,2013-04-28 18:39:00,
2013-04-28 14:44:00,80.1,43.8,30.00,SSE,157,0.0,1.6,28,0.00,,,0.00,WUHU21623XXSP,2013-04-28 18:44:00,
2013-04-28 14:49:00,80.4,44.0,30.00,SSE,157,0.0,0.0,28,0.00,,,0.00,WUHU21623XXSP,2013-04-28 18:49:00,
2013-04-28 14:54:00,80.4,44.1,29.99,West,270,7.6,7.6,28,0.00,,,0.00,WUHU21623XXSP,2013-04-28 18:54:00,
2013-04-28 14:59:00,80.4,44.1,29.99,SE,135,4.5,7.6,27,0.00,,,0.00,WUHU21623XXSP,2013-04-28 18:59:00,
2013-04-28 15:04:00,79.5,42.3,29.99,NNE,22,2.5,4.5,27,0.00,,,0.00,WUHU21623XXSP,2013-04-28 19:04:00,
2013-04-28 15:09:00,77.5,40.6,29.99,East,90,0.0,2.9,27,0.00,,,0.00,WUHU21623XXSP,2013-04-28 19:09:00,
2013-04-28 15:14:00,77.7,41.8,29.99,ESE,112,0.0,2.9,28,0.00,,,0.00,WUHU21623XXSP,2013-04-28 19:14:00,
2013-04-28 15:19:00,78.4,43.0,29.99,ESE,112,0.0,0.0,29,0.00,,,0.00,WUHU21623XXSP,2013-04-28 19:19:00,
2013-04-28 15:24:00,79.2,44.2,29.98,West,270,6.5,6.5,28,0.00,,,0.00,WUHU21623XXSP,2013-04-28 19:24:00,
2013-04-28 15:29:00,77.7,41.8,29.98,East,90,3.1,6.5,28,0.00,,,0.00,WUHU21623XXSP,2013-04-28 19:29:00,
2013-04-28 15:34:00,76.8,41.1,29.98,ESE,112,2.2,3.4,28,0.00,,,0.00,WUHU21623XXSP,2013-04-28 19:34:00,
2013-04-28 15:39:00,74.8,40.4,29.98,ESE,112,6.9,6.9,29,0.00,,,0.00,WUHU21623XXSP,2013-04-28 19:39:00,
2013-04-28 15:44:00,73.9,40.6,29.97,SE,135,0.0,6.9,30,0.00,,,0.00,WUHU21623XXSP,2013-04-28 19:44:00,
2013-04-28 15:49:00,73.2,40.0,29.97,ESE,112,0.9,1.8,30,0.00,,,0.00,WUHU21623XXSP,2013-04-28 19:49:00,
2013-04-28 15:54:00,72.9,40.4,29.97,ENE,67,2.5,2.9,31,0.00,,,0.00,WUHU21623XXSP,2013-04-28 19:54:00,
2013-04-28 15:59:00,72.7,39.5,29.97,ESE,112,2.2,2.9,30,0.00,,,0.00,WUHU21623XXSP,2013-04-28 19:59:00,
2013-04-28 16:04:00,73.0,40.5,29.97,North,0,0.0,2.2,31,0.00,,,0.00,WUHU21623XXSP,2013-04-28 20:04:00,
2013-04-28 16:09:00,73.8,41.9,29.97,SW,225,0.0,2.0,32,0.00,,,0.00,WUHU21623XXSP,2013-04-28 20:09:00,
2013-04-28 16:14:00,74.7,41.2,29.97,WSW,247,0.0,1.6,30,0.00,,,0.00,WUHU21623XXSP,2013-04-28 20:14:00,
2013-04-28 16:19:00,74.5,41.1,29.97,ENE,67,0.0,4.9,30,0.00,,,0.00,WUHU21623XXSP,2013-04-28 20:19:00,
2013-04-28 16:24:00,75.0,41.6,29.97,ENE,67,0.0,4.9,30,0.00,,,0.00,WUHU21623XXSP,2013-04-28 20:24:00,
2013-04-28 16:29:00,74.5,40.0,29.97,East,90,2.5,2.5,29,0.00,,,0.00,WUHU21623XXSP,2013-04-28 20:29:00,
2013-04-28 16:34:00,74.1,39.7,29.96,ESE,112,0.0,6.9,29,0.00,,,0.00,WUHU21623XXSP,2013-04-28 20:34:00,
2013-04-28 16:39:00,73.4,39.1,29.96,NE,45,0.0,6.9,29,0.00,,,0.00,WUHU21623XXSP,2013-04-28 20:39:00,
2013-04-28 16:44:00,73.2,40.0,29.96,East,90,5.8,6.5,30,0.00,,,0.00,WUHU21623XXSP,2013-04-28 20:44:00,
2013-04-28 16:49:00,73.2,38.9,29.97,ESE,112,1.6,5.8,29,0.00,,,0.00,WUHU21623XXSP,2013-04-28 20:49:00,
2013-04-28 16:54:00,73.2,40.0,29.97,ENE,67,0.0,4.5,30,0.00,,,0.00,WUHU21623XXSP,2013-04-28 20:54:00,
2013-04-28 16:59:00,73.2,40.0,29.97,East,90,0.0,4.5,30,0.00,,,0.00,WUHU21623XXSP,2013-04-28 20:59:00,
2013-04-28 17:04:00,73.2,40.0,29.97,ENE,67,3.4,3.4,30,0.00,,,0.00,WUHU21623XXSP,2013-04-28 21:04:00,
2013-04-28 17:09:00,72.7,38.5,29.97,ENE,67,3.1,3.4,29,0.00,,,0.00,WUHU21623XXSP,2013-04-28 21:09:00,
2013-04-28 17:14:00,72.3,39.2,29.97,East,90,1.6,3.1,30,0.00,,,0.00,WUHU21623XXSP,2013-04-28 21:14:00,
2013-04-28 17:19:00,72.1,38.1,29.97,East,90,8.5,8.5,29,0.00,,,0.00,WUHU21623XXSP,2013-04-28 21:19:00,
2013-04-28 17:24:00,71.4,38.5,29.97,East,90,2.2,8.5,30,0.00,,,0.00,WUHU21623XXSP,2013-04-28 21:24:00,
2013-04-28 17:29:00,71.2,38.3,29.97,East,90,0.0,8.5,30,0.00,,,0.00,WUHU21623XXSP,2013-04-28 21:29:00,
2013-04-28 17:34:00,71.2,39.1,29.97,East,90,0.0,1.6,31,0.00,,,0.00,WUHU21623XXSP,2013-04-28 21:34:00,
2013-04-28 17:39:00,71.2,38.3,29.97,NE,45,1.8,1.8,30,0.00,,,0.00,WUHU21623XXSP,2013-04-28 21:39:00,
2013-04-28 17:44:00,70.3,37.5,29.97,East,90,0.0,6.3,30,0.00,,,0.00,WUHU21623XXSP,2013-04-28 21:44:00,
2013-04-28 17:49:00,70.0,37.2,29.97,ENE,67,4.7,6.3,30,0.00,,,0.00,WUHU21623XXSP,2013-04-28 21:49:00,
2013-04-28 17:54:00,69.4,37.5,29.97,ESE,112,0.0,4.7,31,0.00,,,0.00,WUHU21623XXSP,2013-04-28 21:54:00,
2013-04-28 17:59:00,69.1,37.1,29.97,ESE,112,2.2,2.7,31,0.00,,,0.00,WUHU21623XXSP,2013-04-28 21:59:00,
2013-04-28 18:04:00,69.1,37.1,29.97,WSW,247,0.0,2.2,31,0.00,,,0.00,WUHU21623XXSP,2013-04-28 22:04:00,
2013-04-28 18:09:00,69.1,37.1,29.97,East,90,0.0,4.3,31,0.00,,,0.00,WUHU21623XXSP,2013-04-28 22:09:00,
2013-04-28 18:14:00,69.1,37.9,29.97,ESE,112,0.0,4.3,32,0.00,,,0.00,WUHU21623XXSP,2013-04-28 22:14:00,
2013-04-28 18:19:00,69.1,37.9,29.97,West,270,4.7,4.7,32,0.00,,,0.00,WUHU21623XXSP,2013-04-28 22:19:00,
2013-04-28 18:24:00,68.5,37.5,29.97,SW,225,2.0,6.7,32,0.00,,,0.00,WUHU21623XXSP,2013-04-28 22:24:00,
2013-04-28 18:29:00,67.8,36.7,29.97,WSW,247,1.8,6.7,32,0.00,,,0.00,WUHU21623XXSP,2013-04-28 22:29:00,
2013-04-28 18:34:00,67.5,36.4,29.97,West,270,0.0,2.0,32,0.00,,,0.00,WUHU21623XXSP,2013-04-28 22:34:00,
2013-04-28 18:39:00,66.9,36.0,29.97,SSE,157,0.0,0.0,32,0.00,,,0.00,WUHU21623XXSP,2013-04-28 22:39:00,
2013-04-28 18:44:00,66.6,35.9,29.97,SW,225,1.3,1.3,32,0.00,,,0.00,WUHU21623XXSP,2013-04-28 22:44:00,
2013-04-28 18:49:00,66.2,36.3,29.97,ESE,112,0.0,1.3,32,0.00,,,0.00,WUHU21623XXSP,2013-04-28 22:49:00,
2013-04-28 18:54:00,65.5,35.5,29.97,NE,45,0.0,1.8,33,0.00,,,0.00,WUHU21623XXSP,2013-04-28 22:54:00,
2013-04-28 18:59:00,64.9,35.0,29.97,NNE,22,0.0,2.5,33,0.00,,,0.00,WUHU21623XXSP,2013-04-28 22:59:00,
2013-04-28 19:04:00,64.6,34.8,29.98,NNE,22,0.0,2.5,33,0.00,,,0.00,WUHU21623XXSP,2013-04-28 23:04:00,
2013-04-28 19:09:00,64.2,35.1,29.97,NNE,22,0.0,0.0,34,0.00,,,0.00,WUHU21623XXSP,2013-04-28 23:09:00,
2013-04-28 19:14:00,64.0,34.9,29.97,NNE,22,0.0,0.0,34,0.00,,,0.00,WUHU21623XXSP,2013-04-28 23:14:00,
2013-04-28 19:19:00,63.5,33.7,29.98,NE,45,0.0,0.0,33,0.00,,,0.00,WUHU21623XXSP,2013-04-28 23:19:00,
2013-04-28 19:24:00,63.1,34.1,29.98,East,90,0.0,0.0,34,0.00,,,0.00,WUHU21623XXSP,2013-04-28 23:24:00,
2013-04-28 19:29:00,63.0,33.2,29.98,ENE,67,0.0,0.0,33,0.00,,,0.00,WUHU21623XXSP,2013-04-28 23:29:00,
2013-04-28 19:34:00,62.4,33.5,29.98,ENE,67,3.8,3.8,34,0.00,,,0.00,WUHU21623XXSP,2013-04-28 23:34:00,
2013-04-28 19:39:00,62.2,33.3,29.98,East,90,0.0,7.6,34,0.00,,,0.00,WUHU21623XXSP,2013-04-28 23:39:00,
2013-04-28 19:44:00,61.9,33.0,29.98,East,90,0.0,7.6,34,0.00,,,0.00,WUHU21623XXSP,2013-04-28 23:44:00,
2013-04-28 19:49:00,61.5,32.6,29.98,NNE,22,0.0,1.3,34,0.00,,,0.00,WUHU21623XXSP,2013-04-28 23:49:00,
2013-04-28 19:54:00,61.2,32.3,29.98,NNE,22,0.0,1.3,34,0.00,,,0.00,WUHU21623XXSP,2013-04-28 23:54:00,
2013-04-28 19:59:00,61.0,32.2,29.98,SE,135,0.0,1.8,34,0.00,,,0.00,WUHU21623XXSP,2013-04-28 23:59:00,
2013-04-28 20:04:00,60.6,31.8,29.98,SE,135,0.0,1.8,34,0.00,,,0.00,WUHU21623XXSP,2013-04-29 00:04:00,
2013-04-28 20:09:00,60.4,32.4,29.98,East,90,0.0,1.8,35,0.00,,,0.00,WUHU21623XXSP,2013-04-29 00:09:00,
2013-04-28 20:14:00,60.1,32.1,29.98,East,90,0.0,1.8,35,0.00,,,0.00,WUHU21623XXSP,2013-04-29 00:14:00,
2013-04-28 20:19:00,59.7,31.8,29.98,SSE,157,0.0,6.7,35,0.00,,,0.00,WUHU21623XXSP,2013-04-29 00:19:00,
2013-04-28 20:24:00,59.5,31.6,29.98,SSE,157,0.0,6.7,35,0.00,,,0.00,WUHU21623XXSP,2013-04-29 00:24:00,
2013-04-28 20:29:00,59.2,31.3,29.98,SSE,157,0.0,0.0,35,0.00,,,0.00,WUHU21623XXSP,2013-04-29 00:29:00,
2013-04-28 20:34:00,58.8,31.7,29.99,SSE,157,0.0,0.0,36,0.00,,,0.00,WUHU21623XXSP,2013-04-29 00:34:00,
2013-04-28 20:39:00,58.8,32.4,29.99,SSE,157,0.4,0.4,37,0.00,,,0.00,WUHU21623XXSP,2013-04-29 00:39:00,
2013-04-28 20:44:00,58.3,31.2,29.99,ESE,112,0.7,0.7,36,0.00,,,0.00,WUHU21623XXSP,2013-04-29 00:44:00,
2013-04-28 20:49:00,58.1,31.8,29.99,East,90,0.0,0.7,37,0.00,,,0.00,WUHU21623XXSP,2013-04-29 00:49:00,
2013-04-28 20:54:00,57.9,30.9,30.00,East,90,0.9,1.3,36,0.00,,,0.00,WUHU21623XXSP,2013-04-29 00:54:00,
2013-04-28 20:59:00,57.7,30.8,30.00,East,90,0.0,1.3,36,0.00,,,0.00,WUHU21623XXSP,2013-04-29 00:59:00,
2013-04-28 21:04:00,57.6,31.3,30.00,East,90,0.0,1.1,37,0.00,,,0.00,WUHU21623XXSP,2013-04-29 01:04:00,
2013-04-28 21:09:00,57.4,31.1,30.01,East,90,0.0,0.0,37,0.00,,,0.00,WUHU21623XXSP,2013-04-29 01:09:00,
2013-04-28 21:14:00,57.0,30.8,30.01,East,90,0.0,0.0,37,0.00,,,0.00,WUHU21623XXSP,2013-04-29 01:14:00,
2013-04-28 21:19:00,56.8,30.6,30.02,East,90,0.0,0.0,37,0.00,,,0.00,WUHU21623XXSP,2013-04-29 01:19:00,
2013-04-28 21:24:00,56.3,30.9,30.01,East,90,0.0,0.0,38,0.00,,,0.00,WUHU21623XXSP,2013-04-29 01:24:00,
2013-04-28 21:29:00,55.9,30.5,30.01,ENE,67,0.0,0.0,38,0.00,,,0.00,WUHU21623XXSP,2013-04-29 01:29:00,
2013-04-28 21:34:00,55.8,30.4,30.02,ENE,67,0.0,0.0,38,0.00,,,0.00,WUHU21623XXSP,2013-04-29 01:34:00,
2013-04-28 21:39:00,55.6,30.9,30.02,ENE,67,0.0,0.0,39,0.00,,,0.00,WUHU21623XXSP,2013-04-29 01:39:00,
2013-04-28 21:44:00,55.2,30.6,30.02,ENE,67,0.0,0.0,39,0.00,,,0.00,WUHU21623XXSP,2013-04-29 01:44:00,
2013-04-28 21:49:00,55.2,30.6,30.02,ENE,67,0.0,0.0,39,0.00,,,0.00,WUHU21623XXSP,2013-04-29 01:49:00,
2013-04-28 21:54:00,55.0,30.4,30.02,ENE,67,0.0,0.0,39,0.00,,,0.00,WUHU21623XXSP,2013-04-29 01:54:00,
2013-04-28 21:59:00,54.7,30.1,30.02,ENE,67,0.0,0.0,39,0.00,,,0.00,WUHU21623XXSP,2013-04-29 01:59:00,
2013-04-28 22:04:00,54.5,29.9,30.02,ENE,67,0.0,0.0,39,0.00,,,0.00,WUHU21623XXSP,2013-04-29 02:04:00,
2013-04-28 22:09:00,54.3,29.8,30.02,ENE,67,0.0,0.0,39,0.00,,,0.00,WUHU21623XXSP,2013-04-29 02:09:00,
2013-04-28 22:14:00,54.1,29.6,30.02,ENE,67,0.0,0.0,39,0.00,,,0.00,WUHU21623XXSP,2013-04-29 02:14:00,
2013-04-28 22:19:00,54.0,30.2,30.02,ENE,67,0.0,0.0,40,0.00,,,0.00,WUHU21623XXSP,2013-04-29 02:19:00,
2013-04-28 22:24:00,53.6,29.2,30.02,ENE,67,0.0,0.0,39,0.00,,,0.00,WUHU21623XXSP,2013-04-29 02:24:00,
2013-04-28 22:29:00,53.4,29.7,30.02,ENE,67,0.0,0.0,40,0.00,,,0.00,WUHU21623XXSP,2013-04-29 02:29:00,
2013-04-28 22:34:00,53.4,29.7,30.02,ENE,67,0.0,0.0,40,0.00,,,0.00,WUHU21623XXSP,2013-04-29 02:34:00,
2013-04-28 22:39:00,53.2,29.5,30.02,ENE,67,0.0,0.0,40,0.00,,,0.00,WUHU21623XXSP,2013-04-29 02:39:00,
2013-04-28 22:44:00,52.9,29.8,30.02,ENE,67,0.0,0.0,41,0.00,,,0.00,WUHU21623XXSP,2013-04-29 02:44:00,
2013-04-28 22:49:00,52.9,29.8,30.02,ENE,67,0.0,0.0,41,0.00,,,0.00,WUHU21623XXSP,2013-04-29 02:49:00,
2013-04-28 22:54:00,52.5,29.6,30.02,ENE,67,0.0,0.0,41,0.00,,,0.00,WUHU21623XXSP,2013-04-29 02:54:00,
2013-04-28 22:59:00,52.3,29.4,30.02,ENE,67,0.0,0.0,41,0.00,,,0.00,WUHU21623XXSP,2013-04-29 02:59:00,
2013-04-28 23:04:00,52.3,29.3,30.02,ENE,67,0.0,0.0,41,0.00,,,0.00,WUHU21623XXSP,2013-04-29 03:04:00,
2013-04-28 23:09:00,52.2,29.7,30.02,ENE,67,0.0,0.0,42,0.00,,,0.00,WUHU21623XXSP,2013-04-29 03:09:00,
2013-04-28 23:14:00,52.0,29.5,30.02,ENE,67,0.0,0.0,42,0.00,,,0.00,WUHU21623XXSP,2013-04-29 03:14:00,
2013-04-28 23:19:00,51.8,30.1,30.02,ENE,67,0.0,0.0,43,0.00,,,0.00,WUHU21623XXSP,2013-04-29 03:19:00,
2013-04-28 23:24:00,51.6,30.3,30.02,ENE,67,0.0,0.0,44,0.00,,,0.00,WUHU21623XXSP,2013-04-29 03:24:00,
2013-04-28 23:29:00,51.4,29.7,30.02,ENE,67,0.0,0.0,43,0.00,,,0.00,WUHU21623XXSP,2013-04-29 03:29:00,
2013-04-28 23:34:00,51.4,29.6,30.02,ENE,67,0.0,0.0,43,0.00,,,0.00,WUHU21623XXSP,2013-04-29 03:34:00,
2013-04-28 23:39:00,51.1,29.2,30.02,ENE,67,0.0,0.0,43,0.00,,,0.00,WUHU21623XXSP,2013-04-29 03:39:00,
2013-04-28 23:44:00,51.1,29.8,30.02,ENE,67,0.0,0.0,44,0.00,,,0.00,WUHU21623XXSP,2013-04-29 03:44:00,
2013-04-28 23:49:00,50.9,29.6,30.02,ENE,67,0.0,0.0,44,0.00,,,0.00,WUHU21623XXSP,2013-04-29 03:49:00,
2013-04-28 23:54:00,50.7,29.5,30.02,ENE,67,0.0,0.0,44,0.00,,,0.00,WUHU21623XXSP,2013-04-29 03:54:00,
2013-04-28 23:59:00,50.5,29.3,30.02,ENE,67,0.0,0.0,44,0.00,,,0.00,WUHU21623XXSP,2013-04-29 03:59:00,